Location: Staplefield
(51.0333°N, 0.1833°W)
Time: 19:59:16
(UTC+00:00)

Daily predictions for brighter satellites

Satellite Brightness Start Highest point End
(mag) Time Altitude Azimuth Time Altitude Azimuth Time Altitude Azimuth
Cosmos 2333 Rocket 4.4 18:27:46 10° W 18:32:28 25° NW 18:37:12 10° NNE
NOSS 0 Rocket 4.0 18:26:18 10° SSW 18:32:34 86° ESE 18:38:50 10° NNE
Radarsat Rocket 4.4 18:28:47 10° S 18:35:14 71° WSW 18:41:11 10° NNW
Resurs 01 Rocket 2.8 18:32:19 10° ESE 18:35:56 25° ENE 18:39:33 10° N
Cosmos 1707 2.6 18:34:50 10° NNW 18:38:23 84° W 18:41:57 10° S
USA 306 2.9 18:42:15 10° WNW 18:45:15 48° N 18:48:46 10° E
ISS -3.7 18:42:26 10° W 18:45:48 85° N 18:49:10 10° E
Cosmos 2034 Rocket 4.4 18:40:16 10° SSE 18:45:55 39° E 18:51:34 10° NNE
Meteor PRIRODA 3.7 18:44:39 10° SE 18:47:47 45° ENE 18:50:57 10° N
Cosmos 2208 Rocket 4.1 18:46:05 10° S 18:51:15 57° ESE 18:56:31 10° NNE
GENESIS II 3.8 18:49:28 10° SW 18:52:58 83° SE 18:56:30 10° NE
Cosmos 1733 2.8 18:51:10 10° S 18:54:33 68° E 18:57:58 10° NNE
SL-16 R/B 2.8 18:50:15 10° SSE 18:55:15 33° ESE 19:00:16 10° NE
SAR-Lupe-2 3.5 18:51:47 10° SSE 18:55:21 79° ENE 18:58:57 10° NNW
ACS3 Solar Sail 2.6 18:49:42 10° ESE 18:55:21 34° ENE 19:01:00 10° N
Cosmos 1315 Rocket 2.7 18:52:22 10° N 18:56:22 72° ENE 19:00:19 10° SSE
Cosmos 1805 3.7 18:55:01 10° SSE 18:58:18 33° E 19:01:38 10° NNE
Cosmos 1536 2.7 18:58:01 10° S 19:01:51 87° W 19:05:45 10° N
Resurs 1-3 3.6 18:59:17 10° SSE 19:03:37 87° WSW 19:07:59 10° NNW
Cosmos 2278 Rocket 4.1 19:01:08 10° NW 19:06:01 31° WSW 19:10:54 10° SSW
SPOT 1/Viking Rocket 3.5 19:02:03 10° SSE 19:07:14 89° ENE 19:12:25 10° NNW
Cosmos 1428 Rocket 4.5 19:01:18 10° N 19:07:23 63° ENE 19:13:28 10° SSE
ATLAS CENTAUR R/B 2.1 19:04:12 10° WSW 19:07:42 47° NW 19:11:25 10° NE
Cosmos 1515 Rocket 4.1 19:03:25 10° NNW 19:07:44 63° W 19:12:03 10° S
Meteor 1-11 Rocket 3.6 19:03:05 10° S 19:08:37 73° E 19:14:08 10° NNE
SL-14 R/B 3.4 19:05:00 10° N 19:08:42 48° ENE 19:12:26 10° SSE
ATLAS 2AS CENTAUR R/B 4.2 19:03:13 10° WNW 19:09:15 29° N 19:15:06 10° ENE
Meteor 2-9 Rocket 4.1 19:06:42 10° S 19:12:03 68° E 19:17:35 10° NNE
COSMOS 2428 4.3 19:07:19 10° WSW 19:12:35 37° NW 19:17:54 10° NNE
ADEOS 3.7 19:09:18 10° SSE 19:14:30 79° WSW 19:19:46 10° NNW
CSL-04 Rocket 3.8 19:12:16 10° SE 19:17:24 52° ENE 19:22:31 10° N
CZ-4B DEB 4.2 19:13:32 10° SSE 19:19:02 88° WSW 19:24:34 10° NNW
CZ-4B R/B 3.2 19:13:57 10° SE 19:19:13 58° ENE 19:24:27 10° N
Cosmos 1500 Rocket 3.4 19:19:25 10° S 19:23:44 73° E 19:28:04 10° NNE
USA 186 1.7 19:24:40 15° SSE 19:27:12 69° ENE 19:30:25 10° N
CZ-4B R/B 4.0 19:25:02 10° S 19:29:45 58° WSW 19:34:37 10° NNW
SJ-6B 3.4 19:26:43 10° S 19:30:13 50° W 19:33:45 10° NNW
ARGOS Delta rocket 4.0 19:25:36 10° S 19:30:25 72° W 19:35:01 10° NNW
Nadezhda 4 Rocket 4.4 19:24:41 10° NNW 19:30:57 70° W 19:37:13 10° S
Cosmos 2195 Rocket 4.4 19:25:10 10° N 19:31:20 82° E 19:37:30 10° SSE
Cosmos 773 Rocket 3.9 19:26:37 10° SSW 19:31:52 71° ESE 19:37:09 10° NNE
Cosmos 2237 Rocket 3.1 19:28:06 10° SW 19:33:34 52° NW 19:39:05 10° NNE
Cosmos 1743 Rocket 3.4 19:29:26 10° S 19:33:43 69° E 19:38:05 10° NNE
SWARM A 4.5 19:30:21 10° S 19:33:50 76° W 19:37:21 10° N
Cosmos 1408 Rocket 3.9 19:31:23 10° SSW 19:35:47 69° WNW 19:40:13 10° N
SL-08 R/B 3.6 19:31:18 10° NNE 19:36:15 76° WNW 19:41:08 10° SSW
Cosmos 2026 Rocket 3.9 19:30:11 10° N 19:36:25 76° E 19:42:30 10° SSE
Cosmos 1943 Rocket 4.3 19:32:24 10° NW 19:36:51 26° WSW 19:41:18 10° SSW
NOSS 3-3 (C) 3.9 19:31:20 10° SW 19:36:51 81° NW 19:43:30 10° NE
Helios 1A 2.9 19:33:16 10° NNE 19:37:23 88° W 19:41:27 10° SSW
USA 267 3.8 19:31:41 10° ENE 19:38:05 57° N 19:44:30 10° W
SeaSat 1 3.1 19:34:44 10° NNE 19:39:34 57° NW 19:44:22 10° SW
Cosmos 724 4.2 19:33:53 10° SSW 19:39:37 71° SE 19:45:25 10° NE
Cosmos 1766 3.9 19:41:43 31° E 19:41:43 31° E 19:44:46 10° NNE
Tiangong 0.3 19:40:15 10° SSW 19:41:06 12° S 19:41:06 12° S
Sich 1 3.1 19:38:17 10° SSW 19:42:35 80° W 19:46:58 10° N
Okean O Rocket 1.7 19:41:03 25° SE 19:43:30 57° ENE 19:47:49 10° N
USA 32 4.0 19:38:41 10° N 19:43:58 88° W 19:49:13 10° S
CARTOSAT-1 3.5 19:40:01 10° SSE 19:44:12 82° WSW 19:48:29 10° NNW
GEOS 3 Rocket 3.6 19:41:58 25° SE 19:45:04 75° NE 19:50:15 10° NW
NOSS 3-3 (A) 4.2 19:41:27 10° SW 19:46:59 70° NW 19:53:37 10° NE
Cosmos 1092 Rocket 4.0 19:40:39 10° N 19:47:02 86° E 19:53:23 10° S
BREEZE-M R/B 4.3 19:46:05 10° W 19:50:46 67° SSW 20:00:20 23° ESE
Cosmos 1656 Rocket 4.0 19:45:23 10° NNW 19:50:59 67° WSW 19:55:32 15° SSE
CZ-4 R/B 2.3 19:47:17 10° S 19:51:01 46° W 19:54:51 10° NNW
Cosmos 2297 3.9 19:47:25 10° NNW 19:53:03 73° WSW 19:57:17 18° SSE
CSL-04 Debris 4.2 19:48:56 10° SSE 19:54:24 81° WSW 19:59:54 10° NNW
SPOT 5 3.1 19:54:02 36° ESE 19:55:04 42° ENE 19:59:11 10° N
Cosmos 1607 4.0 19:50:01 10° SW 19:56:29 88° NW 20:02:58 10° NE
Cosmos 2369 Rocket 2.3 19:52:04 10° NNW 19:57:49 80° WSW 20:01:29 23° SSE
ARIANE 6 FM1 Upper Stage 3.0 19:54:10 10° SSW 19:58:11 42° SE 19:58:11 42° SE
Aureole 3 Rocket 3.5 19:53:20 10° SSW 19:58:44 70° WNW 20:02:41 10° N
Okean 2 3.7 19:55:06 10° N 19:58:56 41° ENE 19:59:08 41° E
Cosmos 2344 4.5 19:51:47 10° NW 19:58:57 42° NNE 20:05:08 19° E
MOS 1-B 4.3 19:54:21 15° SSE 19:59:10 89° WSW 20:05:00 10° NNW
BREEZE-M DEB (TANK) 4.2 19:37:40 10° W 20:00:24 81° S 20:03:29 31° ESE
CZ-4B R/B 4.2 19:56:53 10° SSW 20:00:43 40° W 20:04:42 10° NNW
Terra 2.8 20:00:58 28° ENE 20:01:25 29° ENE 20:05:28 10° N
Aureole 3 4.3 19:58:27 10° N 20:02:48 42° ENE 20:03:54 37° ESE
CRYOSAT 2 4.4 19:58:23 10° NNE 20:03:14 57° E 20:05:19 32° SSE
Cosmos 1634 Rocket 3.9 20:00:24 10° S 20:06:42 79° E 20:13:04 10° NNE
Cosmos 1441 Rocket 3.0 20:03:44 14° SSW 20:06:42 83° WNW 20:10:16 10° N
Cosmos 1805 Rocket 4.4 20:02:40 10° SSW 20:06:53 50° WNW 20:11:09 10° N
Okean 1-7 3.3 20:03:10 10° N 20:07:18 43° ENE 20:07:26 43° E
Cosmos 2228 Rocket 3.1 20:03:12 10° N 20:07:48 87° W 20:10:04 30° S
Cosmos 1633 Rocket 3.1 20:09:43 51° ESE 20:10:11 54° E 20:14:30 10° NNE
Cosmos 1975 3.1 20:06:47 10° SSW 20:10:38 65° WNW 20:14:31 10° N
NOSS 3-4 (A) 4.2 20:04:02 10° NW 20:10:42 59° SW 20:15:59 21° SSE
NOSS 3-4 (C) 4.2 20:04:08 10° NW 20:10:48 60° SW 20:16:03 21° SSE
Cosmos 2084 Rocket 3.2 20:07:40 10° SW 20:11:58 70° SE 20:13:12 43° ENE
Resurs 01 Rocket 2.6 20:07:54 10° S 20:12:08 45° W 20:16:24 10° NNW
MetOp-B 4.2 20:11:40 40° SE 20:13:29 62° ENE 20:18:46 10° N
Cosmos 1538 Rocket 4.4 20:13:37 41° E 20:13:37 41° E 20:18:30 10° NE
RESURS DK-1 4.4 20:12:08 10° N 20:14:44 16° NE 20:14:56 16° NE
Cosmos 192 4.3 20:11:24 10° NNW 20:16:18 78° WSW 20:18:09 38° S
USA 306 2.4 20:14:32 10° WNW 20:17:50 84° WNW 20:17:50 84° WNW
Okean-O 2.5 20:17:08 56° SE 20:17:58 73° ENE 20:22:23 10° N
Cosmos 1862 Rocket 3.6 20:15:42 10° NNW 20:20:10 80° W 20:21:40 41° S
MOS 1 Rocket 3.6 20:20:11 47° SE 20:21:33 64° ENE 20:26:53 10° N
ISS -3.3 20:19:17 10° W 20:22:08 61° W 20:22:08 61° W
Cosmos 1707 Rocket 3.8 20:18:52 10° NNW 20:23:15 65° W 20:25:01 34° SSW
Spot 2 Rocket 4.0 20:23:41 39° ENE 20:23:54 39° ENE 20:28:34 10° N
ERS-1 Rocket 3.1 20:26:14 52° E 20:26:47 55° ENE 20:31:42 10° N
IRS-1A Rocket 4.3 20:27:25 48° SE 20:28:50 65° ENE 20:34:24 10° N
Cosmos 1666 Rocket 3.5 20:28:15 41° SSW 20:29:44 83° W 20:34:06 10° N
Cosmos 1470 Rocket 4.1 20:33:03 46° NE 20:33:03 46° NE 20:36:28 10° NNE
Cosmos 1703 Rocket 4.1 20:28:42 10° N 20:32:25 46° NE 20:32:25 46° NE
Cosmos 2142 Rocket 4.3 20:32:14 32° S 20:35:15 75° E 20:41:26 10° NNE
Cosmos 2279 Rocket 3.9 20:33:08 16° S 20:38:12 90° E 20:44:27 10° N
ACS3 Solar Sail 2.4 20:33:51 15° S 20:39:06 57° W 20:45:26 10° NNW
SL-16 R/B 3.0 20:33:38 10° SW 20:39:10 52° NW 20:44:43 10° NNE
SPOT 3 Rocket 4.0 20:41:30 44° ENE 20:41:30 44° ENE 20:46:12 10° N
Okean 3 4.3 20:39:43 10° NNW 20:43:44 46° W 20:44:38 39° SW
Meteor 2-5 Rocket 4.5 20:39:07 10° N 20:44:37 38° ENE 20:44:37 38° ENE
ATLAS CENTAUR R/B 4.1 20:43:42 10° NW 20:45:58 15° NNW 20:48:18 10° NNE
Cosmos 2180 Rocket 4.4 20:48:16 40° S 20:50:48 83° E 20:57:10 10° N
Cosmos 1943 3.0 20:49:01 32° SSW 20:51:43 80° ESE 20:57:24 10° NNE
Ariane Rocket 3.2 20:57:45 57° NE 20:57:45 57° NE 21:02:18 10° N
Cosmos 1697 Rocket 4.2 20:53:22 10° NNW 20:57:53 24° NE 20:58:31 23° NE
ATLAS 2AS CENTAUR R/B 3.5 20:55:23 10° NW 21:01:56 41° NNE 21:03:49 34° ENE
Cosmos 489 Rocket 4.4 20:56:01 10° NNW 21:02:24 70° ENE 21:02:58 66° E
Cosmos 1655 Rocket 3.9 20:56:40 10° N 21:03:04 68° ENE 21:03:30 66° ESE
IRS-1C Rocket 4.0 21:04:12 74° SW 21:04:30 77° WSW 21:09:48 10° NNW
Okean O Rocket 3.9 21:18:23 16° WSW 21:20:05 19° W 21:23:18 10° NW
USA 267 3.7 21:18:34 41° ENE 21:20:38 57° N 21:27:03 10° WNW
Cosmos 2056 Rocket 3.8 21:15:38 10° NNW 21:20:07 60° N 21:20:07 60° N
Cosmos 2266 Rocket 4.3 21:19:58 10° NNW 21:26:11 62° W 21:27:22 53° SW
SPOT 5 4.5 21:33:09 25° W 21:33:16 25° W 21:36:53 10° NW
Terra 3.0 21:39:40 39° WNW 21:39:40 39° WNW 21:43:21 10° NNW
Cosmos 1656 4.3 21:53:23 10° NNW 21:57:39 52° NW 21:57:39 52° NW
Meteor 1-24 Rocket 4.3 21:54:00 10° NNW 21:58:47 56° NW 21:58:47 56° NW
Cosmos 1980 Rocket 3.7 21:56:46 10° NNW 22:00:49 28° NNE 22:00:49 28° NNE
Cosmos 2344 3.8 22:06:11 10° NW 22:14:18 85° SW 22:15:07 77° SSE
ACS3 Solar Sail 4.5 22:23:00 10° W 22:24:32 11° WNW 22:26:05 10° WNW
ATLAS CENTAUR R/B 4.4 22:23:27 10° NNW 22:24:12 11° N 22:24:12 11° N
Cosmos 1697 Rocket 4.0 22:36:56 10° NNW 22:40:13 36° NNW 22:40:13 36° NNW
ATLAS 2AS CENTAUR R/B 3.4 22:46:31 10° NW 22:51:13 46° WNW 22:51:13 46° WNW
USA 267 4.1 23:05:55 43° WNW 23:05:55 43° WNW 23:10:05 10° WNW
Cosmos 2322 Rocket 4.3 23:03:05 10° NNW 23:07:16 20° NE 23:07:17 20° NE
SL-16 R/B 3.9 23:31:35 10° NNW 23:34:52 28° N 23:34:52 28° N
CZ-3B R/B 4.0 23:19:32 10° WNW 23:36:26 67° WNW 23:36:26 67° WNW
Cosmos 1980 Rocket 4.2 23:40:33 10° NW 23:42:32 23° NW 23:42:32 23° NW
Cosmos 2333 Rocket 4.0 23:47:37 10° NNW 23:51:31 27° NNE 23:51:31 27° NNE
